This is the latest recevied weather packets stored in our database for station/object WB8SKP-WX. If no packets are shown the sender has not sent any weather packets the latest 10 day(s).
| Time | Temp. | Humidity | Pressure | Rain* | Wind** | Luminosity | Snow |
|---|---|---|---|---|---|---|---|
| 1777136462 | 22.78° C | 67% | 991.6 hPa | 0 mm | - | - | - |
| 1777135262 | 22.78° C | 68% | 991.9 hPa | 0 mm | - | - | - |
| 1777134062 | 22.22° C | 69% | 991.9 hPa | 0 mm | - | - | - |
| 1777132832 | 21.67° C | 68% | 991.9 hPa | 0 mm | - | - | - |
| 1777131632 | 21.67° C | 72% | 991.8 hPa | 0 mm | - | - | - |
| 1777130432 | 21.11° C | 73% | 991.8 hPa | 0 mm | - | - | - |
| 1777129202 | 21.11° C | 75% | 991.6 hPa | 0 mm | - | - | - |
| 1777128002 | 20.56° C | 78% | 991.7 hPa | 0 mm | - | - | - |
| 1777126802 | 20° C | 84% | 991.8 hPa | 0 mm | - | - | - |
| 1777125572 | 18.89° C | 88% | 991.6 hPa | 0 mm | - | - | - |
| 1777124372 | 18.33° C | 95% | 991.7 hPa | 0 mm | - | - | - |
| 1777123142 | 17.22° C | 99% | 991.7 hPa | 0 mm | - | - | - |
| 1777121942 | 16.67° C | 99% | 991.7 hPa | 0 mm | - | - | - |
| 1777120742 | 15.56° C | 99% | 991.5 hPa | 0 mm | - | - | - |
| 1777119542 | 15° C | 99% | 991.5 hPa | 0 mm | - | - | - |
| 1777118312 | 14.44° C | 99% | 991.3 hPa | 0 mm | - | - | - |
| 1777117082 | 13.89° C | 99% | 991.2 hPa | 0 mm | - | - | - |
| 1777115882 | 13.89° C | 99% | 991.1 hPa | 0 mm | - | - | - |
| 1777114682 | 13.89° C | 99% | 991 hPa | 0 mm | - | - | - |
| 1777113482 | 13.89° C | 99% | 990.9 hPa | 0 mm | - | - | - |
| 1777112282 | 13.89° C | 99% | 990.5 hPa | 0 mm | - | - | - |
| 1777111052 | 13.89° C | 99% | 990.4 hPa | 0 mm | - | - | - |
| 1777109851 | 13.89° C | 99% | 990.2 hPa | 0 mm | - | - | - |
| 1777108622 | 13.89° C | 99% | 990.2 hPa | 0 mm | - | - | - |
| 1777107422 | 13.89° C | 99% | 990 hPa | 0 mm | - | - | - |
* Rain latest hour (hover to see other rain measurements)
** Current wind speed in m/s (hover to see current wind gust speed)